User: anonymous   Login
Location: Elk Forest
(39.5314°N, 75.8738°W)
Time: 02:08:32
(UTC-05:00)
Language:

Resurs 01 Rocket - Orbit

View from above orbital plane
View from above orbital plane
View from above satellite
View from above satellite

Ground track
Ground track

The orbit data is extracted from the following two-line orbital elements,

1 23343U 94074B   16036.84108348  .00000084  00000-0  19756-4 0  9995
2 23343  98.2056  61.2910 0006059 218.1828 194.1797 14.76629401143439
Epoch (UTC): 05 February 2016 20:11:09
Eccentricity: 0.0006059
inclination: 98.2056°
perigee height: 636 km
apogee height: 644 km
right ascension of ascending node: 61.2910°
argument of perigee: 218.1828°
revolutions per day: 14.76629401
mean anomaly at epoch: 194.1797°
orbit number at epoch: 14343

The dashed part of the orbit path shows where the satellite is in the earth's shadow,  

DLR